Main page
Satellite images Climate Cyclones Lightning AirportsFAQ Languages Contact Newsletter About
Weather : Europe Africa North America South America Asia Australia-Oceania Others

hat-yai-th, Langkawi, Langkawi International Airport

latitude: , longitude: Malaysia, elevation: 06-20N m


METAR: WMKL 212300Z VRB06KT 0800 -RA FEW012 FEW017CB SCT024 BKN140 26/25 Q1008